Home > Weather > Plano > Past weeks

Flag for USA Weather for the Past 2 Weeks in Plano, Texas, USA

Now
62 °F

Low clouds.


Feels Like: 62 °F
Forecast: 62 / 75 °F
Wind: 10 mph from Northwest

Location: McKinney Municipal Airport

Current Time: Apr 30, 2016 at 12:58:42 PM

Latest Report: Apr 30, 2016 at 11:53 AM


Visibility: 10 mi

Pressure: 29.80 "Hg

Humidity: 90%

Dew Point: 59 °F

Location of PlanoLocation

Historic Weather in Plano — Graph

°F

Plano Temperature Yesterday

Maximum temperature yesterday: 80 °F (at 12:53 PM)
Minimum temperature yesterday: 68 °F (at 2:53 AM)
Average temperature yesterday: 72 °F

High & Low Weather Summary for the Past Weeks

 TemperatureHumidityPressure
High83 °F (Apr 25, 4:53 PM)100% (Apr 23, 6:53 AM)30.17 "Hg (Apr 23, 6:53 AM)
Low53 °F (Apr 22, 6:53 AM)30% (Apr 27, 2:53 PM)29.54 "Hg (Apr 29, 6:01 PM)
Average69 °F77%29.89 "Hg
* Reported Apr 15 10:53 AM — Apr 30 10:53 AM, Plano, Weather by CustomWeather, © 2016

Note: Actual official high and low records may vary slightly from our data, if they occured in-between our weather recording intervals... More about our weather records

Advertising

Plano Weather History for the Previous 24 Hours

Scroll right to see more
 ConditionsComfort  
Time TempWeatherWind HumidityBarometerVisibility
10:53 AM
Sat, Apr 30
61 °FLow clouds.12 mph97%29.79 "Hg8 mi
9:53 AM61 °FFog.9 mph97%29.78 "Hg4 mi
8:53 AM62 °FLow clouds.12 mph93%29.78 "Hg10 mi
8:00 AM62 °FFog.8 mph96%29.76 "Hg5 mi
6:53 AM62 °FFog.7 mph100%29.73 "Hg1 mi
5:53 AM63 °FFog.8 mph97%29.70 "Hg5 mi
4:53 AM63 °FFog.7 mph97%29.68 "Hg5 mi
3:53 AM62 °FFog.10 mph100%29.65 "Hg4 mi
3:02 AM61 °FPassing clouds.13 mph97%29.66 "Hg10 mi
2:53 AM61 °FClear.13 mph97%29.65 "Hg10 mi
1:53 AM63 °FClear.8 mph90%29.64 "Hg10 mi
12:53 AM67 °FClear.8 mph97%29.62 "Hg10 mi
11:53 PM
Fri, Apr 29
69 °FClear.No wind93%29.60 "Hg8 mi
10:53 PM69 °FPassing clouds.3 mph96%29.59 "Hg7 mi
9:53 PM70 °FMostly cloudy.14 mph97%29.60 "Hg7 mi
8:53 PM70 °FPartly sunny.No wind97%29.57 "Hg7 mi
7:53 PM71 °FOvercast.7 mph93%29.57 "Hg7 mi
6:53 PM70 °FLight rain. Overcast.8 mph97%29.54 "Hg9 mi
6:01 PM70 °FLight rain. Mostly cloudy.15 mph93%29.54 "Hg10 mi
5:01 PM74 °FThunderstorms. Fog.15 mph94%29.55 "Hg5 mi
3:53 PM77 °FFog.12 mph90%29.57 "Hg5 mi
2:53 PM77 °FLight rain. Fog.8 mph90%29.60 "Hg3 mi
1:53 PM77 °FThunderstorms. Fog.20 mph90%29.62 "Hg3 mi
12:53 PM80 °FBroken clouds.9 mph81%29.66 "Hg5 mi
Weather by CustomWeather, © 2016

See weather overviewHow to use our weather pages